Miscellaneous Local Product
Issued by NWS North Platte, NE

Home | Current Version | Previous Version | Text Only | Print | Product List | Glossary On
Versions: 1 2 3 4 5 6 7 8 9 10 11 12 13 14 15 16 17 18 19 20 21 22 23 24 25 26 27 28 29 30 31 32 33 34 35 36 37 38 39 40 41 42 43 44 45 46 47 48 49 50
000
AXUS43 KLBF 250610
MISLBF


WESTERN AND NORTH CENTRAL NEBRASKA HOURLY WEATHER ROUNDUP
NATIONAL WEATHER SERVICE NORTH PLATTE NE
1200 AM CST WED FEB 25 2015

***STATIONS NOT REPORTING VARIABLES SUCH AS SKY/WEATHER OR
PRESSURE ARE PROVIDED BY THE NEBRASKA DEPARTMENT OF
ROADS...RAWS...AND APRS NETWORKS...AND ARE NOT UNDER
NATIONAL WEATHER SERVICE QUALITY CONTROL***

...OBSERVATIONS IN AND NEAR THE EASTERN PANHANDLE OF NEBRASKA...

CITY           SKY/WX    TMP DP  RH WIND       PRES   REMARKS
PINE RIDGE     CLOUDY    39  26  59 NW8       29.73S WCI  33
CHADRON        CLOUDY    36  27  69 SW6       29.72F WCI  31
ALLIANCE       MOCLDY    28  23  81 SW7       29.73F WCI  21
SIDNEY         PTCLDY    30  20  66 W12       29.79F WCI  20
WHITECLAY        N/A     30  25  80 CALM        N/A
CRESCENT LAKE    N/A     34  23  63 SW6         N/A  WCI  29
LISCO            N/A     32  21  64 CALM        N/A
BIG SPRINGS      N/A     30  24  79 W7          N/A  WCI  23
LEWELLEN         N/A     34  20  58 W5          N/A  WCI  29
$$

...OBSERVATIONS IN NORTH CENTRAL NEBRASKA...

CITY           SKY/WX    TMP DP  RH WIND       PRES   REMARKS
VALENTINE      CLOUDY    39  26  59 SW9       29.68F WCI  33
THEDFORD       CLOUDY    36  27  68 SW6       29.73F WCI  31
AINSWORTH      PTCLDY    37  25  62 S9        29.69F WCI  30
O`NEILL        CLOUDY    36  26  65 S7        29.74F WCI  31
ORD            MOCLDY    34  22  61 S7        29.77F WCI  28
BROKEN BOW     MOCLDY    29  21  72 CALM      29.77F
BROWNLEE         N/A     35  24  63 S9          N/A  WCI  28
SPRINGVIEW       N/A     28  23  81 CALM        N/A
BREWSTER         N/A     36  26  65 S6          N/A  WCI  31
ROSE             N/A     36  28  73 SE6         N/A  WCI  31
NEWPORT          N/A     38  27  64 S10         N/A  WCI  30
SARGENT          N/A     38  26  61 CALM        N/A
COMSTOCK         N/A     39  24  54 S12         N/A  WCI  31
CHAMBERS         N/A     37  21  52 S5G12       N/A  WCI  33
EWING            N/A     35  26  69 CALM        N/A
$$

...OBSERVATIONS IN SOUTHWEST NEBRASKA AND FAR NORTHEAST COLORADO...

CITY           SKY/WX    TMP DP  RH WIND       PRES   REMARKS
WRAY           FAIR      29  22  75 SW8       29.83F WCI  21
IMPERIAL         N/A     31  22  69 MISG      29.81F
OGALLALA       MOCLDY    26  23  89 SW7       29.79F WCI  18
NORTH PLATTE   MOCLDY    28  22  78 NW7       29.78F WCI  21
MCCOOK         PTCLDY    32  25  75 W9        29.82F WCI  24
LEXINGTON      MOCLDY    34  26  72 W5        29.79F WCI  30
PAXTON           N/A     31  25  77 W3          N/A
BRADY            N/A     31  23  72 CALM        N/A
GOTHENBURG       N/A     39  25  58 CALM        N/A
CALLAWAY         N/A     33  26  76 S7          N/A  WCI  27
$$

...NORTH PLATTE AREA...

CITY           SKY/WX    TMP DP  RH WIND       PRES   REMARKS
AIRPORT        MOCLDY    28  22  78 NW7       29.78F WCI  21
DOWNTOWN         N/A     35  25  66 W3          N/A
$$

...SOME WEATHER OBSERVATIONS FROM AROUND THE REGION...

CITY           SKY/WX    TMP DP  RH WIND       PRES   REMARKS
DENVER         MOCLDY    27  15  61 SW15      29.84F WCI  15
LARAMIE        CLOUDY    33  16  49 W12G21    29.85F WCI  24
CHEYENNE       MOCLDY    34  17  50 W13       29.81F WCI  25
SCOTTSBLUFF    CLOUDY    33  24  69 N5        29.76F WCI  29
RAPID CITY     CLOUDY    43  27  53 NW24      29.67S
PIERRE         CLOUDY    29  24  82 E15       29.68F WCI  18
WINNER         MOCLDY    37  21  52 SE16      29.67F WCI  28
SIOUX FALLS    FLURRIES  27  18  69 SE12      29.82F WCI  17
OMAHA          CLOUDY    28  22  78 S5        29.87F WCI  23
GRAND ISLAND   CLEAR     33  23  66 S10       29.82F WCI  25
KANSAS CITY    CLEAR     34  23  64 SW7       29.91S WCI  28
WICHITA        CLEAR     29  22  75 S5        29.91F WCI  24
HAYS           CLEAR     27  18  69 W7        29.88F WCI  19
LIBERAL        CLEAR     27  21  80 W7        29.92F WCI  19
GOODLAND       CLEAR     28  20  71 W13       29.85F WCI  17
$$



USA.gov is the U.S. government's official web portal to all federal, state and local government web resources and services.